| time (UTC) | temp C | wind direction | speed KPH | gust KPH | rain 1hr cm | rain 24hr cm | rain mn cm | humidity % | barometer mb |
| 20260906221545 | 36 | 55 | 6.4 | 14.5 | 0.00 | 0.00 | 0.00 | 35 | 1011.8 |
| 20260906221041 | 36 | 164 | 4.8 | 17.7 | 0.00 | 0.00 | 0.00 | 35 | 1011.8 |
| 20260906220540 | 36 | 158 | 9.7 | 14.5 | 0.00 | 0.00 | 0.00 | 34 | 1012.0 |
| 20260906220036 | 36 | 32 | 6.4 | 6.4 | 0.00 | 0.00 | 0.00 | 34 | 1012.1 |
| 20260906215535 | 37 | 104 | 6.4 | 14.5 | 0.00 | 0.00 | 0.00 | 34 | 1011.9 |
| 20260906215033 | 37 | 134 | 4.8 | 16.1 | 0.00 | 0.00 | 0.00 | 35 | 1012.0 |
| 20260906214532 | 36 | 143 | 9.7 | 11.3 | 0.00 | 0.00 | 0.00 | 35 | 1012.0 |
| 20260906214027 | 36 | 123 | 9.7 | 14.5 | 0.00 | 0.00 | 0.00 | 35 | 1012.2 |
| 20260906213526 | 36 | 172 | 9.7 | 14.5 | 0.00 | 0.00 | 0.00 | 35 | 1012.3 |
| 20260906213021 | 36 | 110 | 11.3 | 16.1 | 0.00 | 0.00 | 0.00 | 35 | 1012.2 |
| 20260906212508 | 36 | 152 | 12.9 | 17.7 | 0.00 | 0.00 | 0.00 | 35 | 1012.5 |
| 20260906212004 | 36 | 143 | 9.7 | 14.5 | 0.00 | 0.00 | 0.00 | 35 | 1012.5 |
| 20260906211504 | 36 | 151 | 9.7 | 11.3 | 0.00 | 0.00 | 0.00 | 35 | 1012.6 |
| 20260906211000 | 36 | 144 | 6.4 | 11.3 | 0.00 | 0.00 | 0.00 | 35 | 1012.7 |
| 20260906210454 | 36 | 128 | 12.9 | 14.5 | 0.00 | 0.00 | 0.00 | 35 | 1013.0 |
| 20260906205954 | 35 | 130 | 12.9 | 17.7 | 0.00 | 0.00 | 0.00 | 35 | 1012.9 |
| 20260906205450 | 36 | 81 | 4.8 | 12.9 | 0.00 | 0.00 | 0.00 | 35 | 1012.9 |
| 20260906204946 | 37 | 133 | 12.9 | 16.1 | 0.00 | 0.00 | 0.00 | 33 | 1012.7 |
| 20260906204445 | 37 | 148 | 3.2 | 11.3 | 0.00 | 0.00 | 0.00 | 34 | 1013.0 |
| 20260906203944 | 37 | 115 | 1.6 | 6.4 | 0.00 | 0.00 | 0.00 | 33 | 1013.0 |
| 20260906203440 | 36 | 105 | 1.6 | 9.7 | 0.00 | 0.00 | 0.00 | 35 | 1012.9 |
| 20260906202937 | 36 | 140 | 9.7 | 20.9 | 0.00 | 0.00 | 0.00 | 34 | 1013.1 |
| 20260906202436 | 36 | 175 | 9.7 | 16.1 | 0.00 | 0.00 | 0.00 | 35 | 1013.0 |
| 20260906201932 | 36 | 151 | 8.0 | 16.1 | 0.00 | 0.00 | 0.00 | 34 | 1013.2 |
| 20260906201426 | 36 | 161 | 12.9 | 14.5 | 0.00 | 0.00 | 0.00 | 34 | 1013.2 |
| 20260906200921 | 35 | 154 | 9.7 | 14.5 | 0.00 | 0.00 | 0.00 | 36 | 1013.2 |
| 20260906200418 | 36 | 132 | 4.8 | 11.3 | 0.00 | 0.00 | 0.00 | 34 | 1013.3 |
| 20260906195917 | 36 | 156 | 9.7 | 14.5 | 0.00 | 0.00 | 0.00 | 34 | 1013.3 |
| 20260906195414 | 36 | 142 | 3.2 | 12.9 | 0.00 | 0.00 | 0.00 | 35 | 1013.3 |
| 20260906194909 | 36 | 136 | 1.6 | 11.3 | 0.00 | 0.00 | 0.00 | 36 | 1013.5 |
| 20260906194405 | 36 | 77 | 3.2 | 16.1 | 0.00 | 0.00 | 0.00 | 35 | 1013.4 |
| 20260906193900 | 35 | 87 | 9.7 | 12.9 | 0.00 | 0.00 | 0.00 | 36 | 1013.3 |
| 20260906193355 | 35 | 148 | 4.8 | 17.7 | 0.00 | 0.00 | 0.00 | 35 | 1013.5 |
| 20260906192851 | 35 | 131 | 4.8 | 16.1 | 0.00 | 0.00 | 0.00 | 36 | 1013.6 |
| 20260906192350 | 36 | 153 | 3.2 | 4.8 | 0.00 | 0.00 | 0.00 | 35 | 1013.5 |
| 20260906191850 | 36 | 117 | 8.0 | 12.9 | 0.00 | 0.00 | 0.00 | 36 | 1013.5 |
| 20260906191344 | 36 | 133 | 8.0 | 11.3 | 0.00 | 0.00 | 0.00 | 34 | 1013.5 |
| 20260906190844 | 36 | 190 | 11.3 | 17.7 | 0.00 | 0.00 | 0.00 | 36 | 1014.0 |
| 20260906190344 | 35 | 128 | 9.7 | 14.5 | 0.00 | 0.00 | 0.00 | 36 | 1013.8 |
| 20260906185839 | 36 | 155 | 14.5 | 20.9 | 0.00 | 0.00 | 0.00 | 35 | 1013.8 |
| 20260906185337 | 36 | 149 | 12.9 | 20.9 | 0.00 | 0.00 | 0.00 | 36 | 1014.0 |
| 20260906184837 | 35 | 103 | 3.2 | 6.4 | 0.00 | 0.00 | 0.00 | 37 | 1013.7 |
| 20260906184338 | 35 | 156 | 6.4 | 17.7 | 0.00 | 0.00 | 0.00 | 37 | 1014.0 |
| 20260906183833 | 35 | 117 | 3.2 | 6.4 | 0.00 | 0.00 | 0.00 | 37 | 1014.0 |
| 20260906183330 | 35 | 104 | 3.2 | 9.7 | 0.00 | 0.00 | 0.00 | 37 | 1014.0 |
| 20260906182830 | 36 | 138 | 12.9 | 17.7 | 0.00 | 0.00 | 0.00 | 37 | 1014.0 |
| 20260906182326 | 35 | 175 | 8.0 | 11.3 | 0.00 | 0.00 | 0.00 | 36 | 1014.2 |
| 20260906181825 | 35 | 138 | 6.4 | 14.5 | 0.00 | 0.00 | 0.00 | 36 | 1014.5 |
| 20260906181322 | 35 | 132 | 6.4 | 16.1 | 0.00 | 0.00 | 0.00 | 37 | 1014.3 |
| 20260906180817 | 35 | 159 | 8.0 | 14.5 | 0.00 | 0.00 | 0.00 | 38 | 1014.3 |
| 20260906180312 | 35 | 126 | 6.4 | 14.5 | 0.00 | 0.00 | 0.00 | 38 | 1014.5 |
| 20260906175809 | 35 | 134 | 14.5 | 14.5 | 0.00 | 0.00 | 0.00 | 37 | 1014.5 |
| 20260906175306 | 35 | 161 | 11.3 | 16.1 | 0.00 | 0.00 | 0.00 | 38 | 1014.5 |
| 20260906174804 | 35 | 140 | 9.7 | 14.5 | 0.00 | 0.00 | 0.00 | 39 | 1014.7 |
| 20260906174303 | 35 | 159 | 9.7 | 16.1 | 0.00 | 0.00 | 0.00 | 39 | 1014.7 |
| 20260906173759 | 35 | 141 | 11.3 | 16.1 | 0.00 | 0.00 | 0.00 | 39 | 1014.9 |
| 20260906173254 | 35 | 116 | 9.7 | 20.9 | 0.00 | 0.00 | 0.00 | 40 | 1014.9 |
| 20260906172753 | 35 | 141 | 11.3 | 14.5 | 0.00 | 0.00 | 0.00 | 38 | 1015.0 |
| 20260906172249 | 33 | 121 | 8.0 | 14.5 | 0.00 | 0.00 | 0.00 | 43 | 1015.0 |
| 20260906171744 | 35 | 103 | 11.3 | 14.5 | 0.00 | 0.00 | 0.00 | 43 | 1015.3 |
| 20260906171239 | 35 | 144 | 4.8 | 17.7 | 0.00 | 0.00 | 0.00 | 42 | 1015.1 |
| 20260906170735 | 35 | 194 | 6.4 | 9.7 | 0.00 | 0.00 | 0.00 | 41 | 1015.4 |
| 20260906170230 | 34 | 140 | 6.4 | 6.4 | 0.00 | 0.00 | 0.00 | 43 | 1015.4 |
| 20260906165726 | 33 | 154 | 0.0 | 3.2 | 0.00 | 0.00 | 0.00 | 46 | 1015.4 |
| 20260906165221 | 35 | 154 | 8.0 | 17.7 | 0.00 | 0.00 | 0.00 | 43 | 1015.3 |
| 20260906164721 | 34 | 177 | 9.7 | 9.7 | 0.00 | 0.00 | 0.00 | 43 | 1015.4 |
| 20260906164216 | 33 | 163 | 3.2 | 11.3 | 0.00 | 0.00 | 0.00 | 45 | 1015.5 |
| 20260906163712 | 33 | 152 | 4.8 | 9.7 | 0.00 | 0.00 | 0.00 | 45 | 1015.7 |
| 20260906163208 | 33 | 104 | 9.7 | 14.5 | 0.00 | 0.00 | 0.00 | 44 | 1015.5 |
| 20260906162704 | 34 | 26 | 3.2 | 11.3 | 0.00 | 0.00 | 0.00 | 44 | 1015.3 |
| 20260906162204 | 33 | 59 | 6.4 | 12.9 | 0.00 | 0.00 | 0.00 | 43 | 1015.4 |
| 20260906161659 | 33 | 171 | 3.2 | 11.3 | 0.00 | 0.00 | 0.00 | 45 | 1015.7 |
| 20260906161158 | 33 | 60 | 11.3 | 16.1 | 0.00 | 0.00 | 0.00 | 45 | 1015.6 |
| 20260906160657 | 33 | 20 | 3.2 | 12.9 | 0.00 | 0.00 | 0.00 | 46 | 1015.7 |
| 20260906160156 | 33 | 128 | 4.8 | 12.9 | 0.00 | 0.00 | 0.00 | 47 | 1015.4 |
| 20260906155654 | 33 | 122 | 3.2 | 11.3 | 0.00 | 0.00 | 0.00 | 47 | 1015.5 |
| 20260906155149 | 32 | 57 | 6.4 | 9.7 | 0.00 | 0.00 | 0.00 | 47 | 1015.4 |
| 20260906154645 | 33 | 31 | 6.4 | 12.9 | 0.00 | 0.00 | 0.00 | 48 | 1015.4 |
| 20260906154144 | 33 | 75 | 4.8 | 9.7 | 0.00 | 0.00 | 0.00 | 49 | 1015.5 |
| 20260906153643 | 33 | 96 | 1.6 | 6.4 | 0.00 | 0.00 | 0.00 | 49 | 1015.4 |
| 20260906153138 | 32 | 108 | 1.6 | 4.8 | 0.00 | 0.00 | 0.00 | 51 | 1015.3 |
| 20260906152633 | 32 | 128 | 3.2 | 3.2 | 0.00 | 0.00 | 0.00 | 50 | 1015.6 |
| 20260906152133 | 32 | 144 | 3.2 | 4.8 | 0.00 | 0.00 | 0.00 | 52 | 1015.5 |
| 20260906151627 | 32 | 145 | 1.6 | 3.2 | 0.00 | 0.00 | 0.00 | 53 | 1015.5 |
| 20260906151124 | 32 | 172 | 4.8 | 6.4 | 0.00 | 0.00 | 0.00 | 53 | 1015.3 |
| 20260906150619 | 31 | 26 | 3.2 | 4.8 | 0.00 | 0.00 | 0.00 | 54 | 1015.4 |
| 20260906150114 | 31 | 75 | 3.2 | 4.8 | 0.00 | 0.00 | 0.00 | 54 | 1015.5 |
| 20260906145613 | 31 | 134 | 3.2 | 4.8 | 0.00 | 0.00 | 0.00 | 56 | 1015.5 |
| 20260906145107 | 31 | 134 | 1.6 | 3.2 | 0.00 | 0.00 | 0.00 | 55 | 1015.0 |
| 20260906144602 | 30 | 137 | 0.0 | 3.2 | 0.00 | 0.00 | 0.00 | 58 | 1015.1 |
| 20260906144058 | 30 | 74 | 1.6 | 4.8 | 0.00 | 0.00 | 0.00 | 58 | 1015.4 |
| 20260906143558 | 30 | 82 | 1.6 | 4.8 | 0.00 | 0.00 | 0.00 | 59 | 1015.0 |
| 20260906143055 | 30 | 124 | 1.6 | 3.2 | 0.00 | 0.00 | 0.00 | 61 | 1015.1 |
| 20260906142553 | 29 | 136 | 3.2 | 4.8 | 0.00 | 0.00 | 0.00 | 64 | 1015.1 |
| 20260906142049 | 28 | 147 | 3.2 | 4.8 | 0.00 | 0.00 | 0.00 | 66 | 1015.0 |
| 20260906141548 | 28 | 144 | 3.2 | 4.8 | 0.00 | 0.00 | 0.00 | 66 | 1015.1 |
| 20260906141043 | 28 | 148 | 3.2 | 6.4 | 0.00 | 0.00 | 0.00 | 66 | 1015.1 |
| 20260906140542 | 27 | 128 | 1.6 | 3.2 | 0.00 | 0.00 | 0.00 | 68 | 1015.4 |
| 20260906140037 | 27 | 161 | 4.8 | 6.4 | 0.00 | 0.00 | 0.00 | 68 | 1015.3 |
| 20260906135533 | 27 | 150 | 4.8 | 9.7 | 0.00 | 0.00 | 0.00 | 69 | 1015.1 |
| 20260906135030 | 27 | 151 | 3.2 | 4.8 | 0.00 | 0.00 | 0.00 | 70 | 1015.0 |
| 20260906134525 | 27 | 149 | 3.2 | 6.4 | 0.00 | 0.00 | 0.00 | 71 | 1015.3 |
| 20260906134026 | 27 | 143 | 4.8 | 6.4 | 0.00 | 0.00 | 0.00 | 71 | 1015.1 |
| 20260906133522 | 26 | 140 | 4.8 | 4.8 | 0.00 | 0.00 | 0.00 | 72 | 1015.0 |
| 20260906133017 | 26 | 132 | 1.6 | 4.8 | 0.00 | 0.00 | 0.00 | 74 | 1014.9 |
| 20260906132512 | 26 | 132 | 3.2 | 4.8 | 0.00 | 0.00 | 0.00 | 75 | 1014.9 |
| 20260906132007 | 25 | 143 | 6.4 | 6.4 | 0.00 | 0.00 | 0.00 | 76 | 1015.0 |
| 20260906131503 | 25 | 137 | 4.8 | 4.8 | 0.00 | 0.00 | 0.00 | 79 | 1014.8 |
| 20260906130958 | 25 | 132 | 3.2 | 3.2 | 0.00 | 0.00 | 0.00 | 80 | 1014.7 |
| 20260906130458 | 25 | 144 | 0.0 | 4.8 | 0.00 | 0.00 | 0.00 | 80 | 1014.8 |
| 20260906125958 | 24 | 124 | 4.8 | 4.8 | 0.00 | 0.00 | 0.00 | 81 | 1014.8 |
| 20260906125455 | 23 | 135 | 1.6 | 6.4 | 0.00 | 0.00 | 0.00 | 81 | 1014.6 |
| 20260906124955 | 23 | 134 | 4.8 | 4.8 | 0.00 | 0.00 | 0.00 | 82 | 1014.6 |
| 20260906124451 | 23 | 192 | 1.6 | 4.8 | 0.00 | 0.00 | 0.00 | 83 | 1014.6 |
| 20260906123950 | 23 | 192 | 3.2 | 3.2 | 0.00 | 0.00 | 0.00 | 84 | 1014.6 |
| 20260906123445 | 23 | 192 | 1.6 | 1.6 | 0.00 | 0.00 | 0.00 | 85 | 1014.8 |
| 20260906122944 | 22 | 192 | 0.0 | 0.0 | 0.00 | 0.00 | 0.00 | 85 | 1014.6 |
| 20260906122439 | 22 | 192 | 1.6 | 1.6 | 0.00 | 0.00 | 0.00 | 85 | 1014.5 |
| 20260906121936 | 22 | 192 | 0.0 | 0.0 | 0.00 | 0.00 | 0.00 | 85 | 1014.5 |
| 20260906121432 | 22 | 192 | 0.0 | 0.0 | 0.00 | 0.00 | 0.00 | 84 | 1014.1 |
| 20260906120929 | 22 | 192 | 1.6 | 1.6 | 0.00 | 0.00 | 0.00 | 85 | 1014.3 |
| 20260906120423 | 23 | 192 | 0.0 | 0.0 | 0.00 | 0.00 | 0.00 | 84 | 1014.0 |
| 20260906115919 | 23 | 192 | 0.0 | 0.0 | 0.00 | 0.00 | 0.00 | 84 | 1014.2 |
| 20260906115415 | 23 | 192 | 1.6 | 1.6 | 0.00 | 0.00 | 0.00 | 84 | 1014.3 |
| 20260906114914 | 23 | 192 | 0.0 | 0.0 | 0.00 | 0.00 | 0.00 | 83 | 1014.0 |
| 20260906114409 | 23 | 192 | 1.6 | 1.6 | 0.00 | 0.00 | 0.00 | 83 | 1014.0 |
| 20260906113905 | 23 | 192 | 1.6 | 1.6 | 0.00 | 0.00 | 0.00 | 84 | 1014.1 |
| 20260906113404 | 23 | 192 | 1.6 | 1.6 | 0.00 | 0.00 | 0.00 | 83 | 1014.1 |
| 20260906112900 | 23 | 192 | 0.0 | 0.0 | 0.00 | 0.00 | 0.00 | 83 | 1014.1 |
| 20260906112355 | 23 | 192 | 0.0 | 0.0 | 0.00 | 0.00 | 0.00 | 83 | 1014.1 |
| 20260906111855 | 23 | 192 | 0.0 | 0.0 | 0.00 | 0.00 | 0.00 | 82 | 1014.0 |
| 20260906111355 | 23 | 192 | 0.0 | 0.0 | 0.00 | 0.00 | 0.00 | 81 | 1013.7 |
| 20260906110850 | 23 | 192 | 0.0 | 0.0 | 0.00 | 0.00 | 0.00 | 81 | 1014.1 |
| 20260906110346 | 23 | 192 | 0.0 | 0.0 | 0.00 | 0.00 | 0.00 | 81 | 1014.1 |
| 20260906105845 | 23 | 192 | 0.0 | 0.0 | 0.00 | 0.00 | 0.00 | 80 | 1013.8 |
| 20260906105341 | 23 | 192 | 0.0 | 0.0 | 0.00 | 0.00 | 0.00 | 79 | 1013.7 |
| 20260906104836 | 23 | 192 | 3.2 | 3.2 | 0.00 | 0.00 | 0.00 | 79 | 1013.7 |
| 20260906104335 | 24 | 192 | 1.6 | 1.6 | 0.00 | 0.00 | 0.00 | 78 | 1013.7 |
| 20260906103833 | 23 | 192 | 1.6 | 1.6 | 0.00 | 0.00 | 0.00 | 79 | 1013.7 |
| 20260906103331 | 24 | 192 | 0.0 | 1.6 | 0.00 | 0.00 | 0.00 | 78 | 1013.5 |
| 20260906102828 | 24 | 192 | 0.0 | 0.0 | 0.00 | 0.00 | 0.00 | 78 | 1013.4 |
| 20260906102327 | 24 | 192 | 0.0 | 1.6 | 0.00 | 0.00 | 0.00 | 78 | 1013.6 |
| 20260906101822 | 24 | 192 | 0.0 | 1.6 | 0.00 | 0.00 | 0.00 | 78 | 1013.6 |
| 20260906101317 | 24 | 192 | 0.0 | 1.6 | 0.00 | 0.00 | 0.00 | 77 | 1013.7 |
| 20260906100813 | 24 | 192 | 1.6 | 1.6 | 0.00 | 0.00 | 0.00 | 78 | 1013.7 |
| 20260906100312 | 24 | 192 | 0.0 | 0.0 | 0.00 | 0.00 | 0.00 | 78 | 1013.6 |
| 20260906095807 | 24 | 192 | 0.0 | 0.0 | 0.00 | 0.00 | 0.00 | 77 | 1013.6 |
| 20260906095305 | 25 | 192 | 0.0 | 0.0 | 0.00 | 0.00 | 0.00 | 77 | 1013.7 |
| 20260906094801 | 25 | 192 | 0.0 | 1.6 | 0.00 | 0.00 | 0.00 | 76 | 1013.7 |
| 20260906094256 | 25 | 192 | 1.6 | 1.6 | 0.00 | 0.00 | 0.00 | 75 | 1013.4 |
| 20260906093753 | 25 | 192 | 3.2 | 1.6 | 0.00 | 0.00 | 0.00 | 76 | 1013.6 |
| 20260906093248 | 25 | 192 | 0.0 | 1.6 | 0.00 | 0.00 | 0.00 | 75 | 1013.4 |
| 20260906092744 | 25 | 192 | 1.6 | 1.6 | 0.00 | 0.00 | 0.00 | 75 | 1013.2 |
| 20260906092244 | 25 | 192 | 1.6 | 3.2 | 0.00 | 0.00 | 0.00 | 75 | 1013.1 |
| 20260906091739 | 25 | 192 | 1.6 | 4.8 | 0.00 | 0.00 | 0.00 | 74 | 1013.3 |
| 20260906091236 | 25 | 196 | 4.8 | 6.4 | 0.00 | 0.00 | 0.00 | 75 | 1013.4 |
| 20260906090732 | 25 | 196 | 6.4 | 9.7 | 0.00 | 0.00 | 0.00 | 75 | 1013.2 |
| 20260906090231 | 25 | 189 | 6.4 | 9.7 | 0.00 | 0.00 | 0.00 | 75 | 1013.1 |
| 20260906085730 | 25 | 196 | 6.4 | 6.4 | 0.00 | 0.00 | 0.00 | 76 | 1013.2 |
| 20260906085229 | 25 | 197 | 4.8 | 4.8 | 0.00 | 0.00 | 0.00 | 75 | 1013.1 |
| 20260906084725 | 25 | 197 | 4.8 | 4.8 | 0.00 | 0.00 | 0.00 | 75 | 1013.3 |
| 20260906084224 | 25 | 197 | 1.6 | 3.2 | 0.00 | 0.00 | 0.00 | 74 | 1013.4 |
| 20260906083719 | 25 | 195 | 3.2 | 4.8 | 0.00 | 0.00 | 0.00 | 75 | 1013.1 |
| 20260906083215 | 25 | 187 | 3.2 | 4.8 | 0.00 | 0.00 | 0.00 | 75 | 1013.1 |
| 20260906082710 | 25 | 188 | 3.2 | 4.8 | 0.00 | 0.00 | 0.00 | 75 | 1013.2 |
| 20260906082205 | 25 | 189 | 4.8 | 4.8 | 0.00 | 0.00 | 0.00 | 75 | 1013.1 |
| 20260906081701 | 25 | 181 | 0.0 | 3.2 | 0.00 | 0.00 | 0.00 | 75 | 1013.0 |
| 20260906081156 | 25 | 181 | 1.6 | 3.2 | 0.00 | 0.00 | 0.00 | 74 | 1013.1 |
| 20260906080653 | 25 | 180 | 1.6 | 1.6 | 0.00 | 0.00 | 0.00 | 74 | 1013.3 |
| 20260906080148 | 25 | 180 | 1.6 | 1.6 | 0.00 | 0.00 | 0.00 | 74 | 1013.3 |
| 20260906075648 | 26 | 180 | 1.6 | 1.6 | 0.00 | 0.00 | 0.00 | 73 | 1013.5 |
| 20260906075142 | 26 | 181 | 3.2 | 3.2 | 0.00 | 0.00 | 0.00 | 73 | 1013.6 |
| 20260906074638 | 26 | 176 | 1.6 | 3.2 | 0.00 | 0.00 | 0.00 | 73 | 1013.4 |
| 20260906074137 | 26 | 185 | 3.2 | 4.8 | 0.00 | 0.00 | 0.00 | 72 | 1013.5 |
| 20260906073632 | 26 | 185 | 3.2 | 3.2 | 0.00 | 0.00 | 0.00 | 73 | 1013.6 |
| 20260906073127 | 26 | 185 | 3.2 | 3.2 | 0.00 | 0.00 | 0.00 | 72 | 1013.4 |
| 20260906072622 | 26 | 186 | 3.2 | 6.4 | 0.00 | 0.00 | 0.00 | 72 | 1013.6 |
| 20260906072118 | 26 | 189 | 3.2 | 4.8 | 0.00 | 0.00 | 0.00 | 71 | 1013.4 |
| 20260906071614 | 26 | 187 | 3.2 | 6.4 | 0.00 | 0.00 | 0.00 | 71 | 1013.3 |
| 20260906071109 | 26 | 169 | 1.6 | 4.8 | 0.00 | 0.00 | 0.00 | 71 | 1013.1 |
| 20260906070606 | 26 | 175 | 3.2 | 9.7 | 0.00 | 0.00 | 0.00 | 70 | 1013.2 |
| 20260906070101 | 26 | 183 | 4.8 | 6.4 | 0.00 | 0.00 | 0.00 | 70 | 1013.3 |
| 20260906065600 | 26 | 174 | 3.2 | 3.2 | 0.00 | 0.00 | 0.00 | 70 | 1013.4 |
| 20260906065056 | 26 | 163 | 1.6 | 3.2 | 0.00 | 0.00 | 0.00 | 69 | 1013.7 |
| 20260906064552 | 26 | 155 | 3.2 | 3.2 | 0.00 | 0.00 | 0.00 | 69 | 1013.7 |
| 20260906064046 | 26 | 161 | 3.2 | 3.2 | 0.00 | 0.00 | 0.00 | 69 | 1013.7 |
| 20260906063541 | 26 | 177 | 3.2 | 3.2 | 0.00 | 0.00 | 0.00 | 68 | 1013.5 |
| 20260906063038 | 27 | 168 | 1.6 | 3.2 | 0.00 | 0.00 | 0.00 | 68 | 1013.7 |
| 20260906062533 | 27 | 169 | 3.2 | 4.8 | 0.00 | 0.00 | 0.00 | 67 | 1013.9 |
| 20260906062032 | 27 | 179 | 6.4 | 9.7 | 0.00 | 0.00 | 0.00 | 67 | 1013.7 |
| 20260906061529 | 27 | 188 | 6.4 | 6.4 | 0.00 | 0.00 | 0.00 | 67 | 1013.6 |
| 20260906061028 | 27 | 187 | 3.2 | 4.8 | 0.00 | 0.00 | 0.00 | 67 | 1013.8 |
| 20260906060525 | 27 | 183 | 3.2 | 4.8 | 0.00 | 0.00 | 0.00 | 66 | 1014.0 |
| 20260906060022 | 27 | 183 | 3.2 | 4.8 | 0.00 | 0.00 | 0.00 | 66 | 1013.9 |
| 20260906055517 | 27 | 175 | 3.2 | 3.2 | 0.00 | 0.00 | 0.00 | 66 | 1013.9 |
| 20260906055013 | 27 | 165 | 1.6 | 4.8 | 0.00 | 0.00 | 0.00 | 65 | 1013.9 |
| 20260906054512 | 27 | 165 | 3.2 | 6.4 | 0.00 | 0.00 | 0.00 | 64 | 1013.9 |
| 20260906054008 | 27 | 157 | 3.2 | 4.8 | 0.00 | 0.00 | 0.00 | 64 | 1013.8 |
| 20260906053504 | 27 | 166 | 1.6 | 3.2 | 0.00 | 0.00 | 0.00 | 64 | 1013.9 |
| 20260906052959 | 27 | 160 | 1.6 | 4.8 | 0.00 | 0.00 | 0.00 | 63 | 1014.0 |
| 20260906052455 | 27 | 149 | 4.8 | 6.4 | 0.00 | 0.00 | 0.00 | 63 | 1013.9 |
| 20260906051952 | 27 | 169 | 3.2 | 6.4 | 0.00 | 0.00 | 0.00 | 62 | 1014.0 |
| 20260906051447 | 28 | 163 | 3.2 | 4.8 | 0.00 | 0.00 | 0.00 | 62 | 1013.6 |
| 20260906050943 | 28 | 165 | 3.2 | 6.4 | 0.00 | 0.00 | 0.00 | 61 | 1013.9 |
| 20260906050442 | 28 | 151 | 4.8 | 6.4 | 0.00 | 0.00 | 0.00 | 61 | 1013.9 |
| 20260906045941 | 28 | 159 | 4.8 | 6.4 | 0.00 | 0.00 | 0.00 | 60 | 1013.9 |
| 20260906045440 | 28 | 168 | 3.2 | 6.4 | 0.00 | 0.00 | 0.00 | 60 | 1013.9 |
| 20260906044937 | 28 | 162 | 3.2 | 6.4 | 0.00 | 0.00 | 0.00 | 59 | 1013.8 |
| 20260906044432 | 28 | 169 | 4.8 | 11.3 | 0.00 | 0.00 | 0.00 | 59 | 1013.9 |
| 20260906043927 | 28 | 156 | 1.6 | 4.8 | 0.00 | 0.00 | 0.00 | 58 | 1013.9 |
| 20260906043423 | 29 | 164 | 3.2 | 4.8 | 0.00 | 0.00 | 0.00 | 57 | 1013.6 |
| 20260906042918 | 28 | 151 | 6.4 | 11.3 | 0.00 | 0.00 | 0.00 | 57 | 1013.8 |
| 20260906042417 | 29 | 161 | 3.2 | 6.4 | 0.00 | 0.00 | 0.00 | 56 | 1013.7 |
| 20260906041913 | 29 | 157 | 4.8 | 4.8 | 0.00 | 0.00 | 0.00 | 55 | 1013.7 |
| 20260906041409 | 29 | 150 | 4.8 | 9.7 | 0.00 | 0.00 | 0.00 | 55 | 1013.9 |
| 20260906040908 | 29 | 155 | 3.2 | 11.3 | 0.00 | 0.00 | 0.00 | 55 | 1013.8 |
| 20260906040404 | 29 | 156 | 6.4 | 11.3 | 0.00 | 0.00 | 0.00 | 55 | 1013.9 |
| 20260906035859 | 29 | 158 | 3.2 | 4.8 | 0.00 | 0.00 | 0.00 | 55 | 1013.7 |
| 20260906035354 | 29 | 130 | 6.4 | 6.4 | 0.00 | 0.00 | 0.00 | 54 | 1013.7 |
| 20260906034850 | 30 | 162 | 4.8 | 9.7 | 0.00 | 0.00 | 0.00 | 54 | 1013.8 |
| 20260906034350 | 30 | 142 | 6.4 | 9.7 | 0.00 | 0.00 | 0.00 | 54 | 1014.1 |
| 20260906033846 | 30 | 159 | 6.4 | 9.7 | 0.00 | 0.00 | 0.00 | 54 | 1013.6 |
| 20260906033345 | 30 | 154 | 4.8 | 4.8 | 0.00 | 0.00 | 0.00 | 53 | 1013.6 |
| 20260906032841 | 30 | 142 | 4.8 | 9.7 | 0.00 | 0.00 | 0.00 | 53 | 1013.6 |
| 20260906032337 | 30 | 149 | 6.4 | 12.9 | 0.00 | 0.00 | 0.00 | 51 | 1013.6 |
| 20260906031832 | 30 | 165 | 6.4 | 12.9 | 0.00 | 0.00 | 0.00 | 51 | 1013.5 |
| 20260906031327 | 30 | 165 | 6.4 | 9.7 | 0.00 | 0.00 | 0.00 | 50 | 1013.5 |
| 20260906030827 | 30 | 159 | 6.4 | 12.9 | 0.00 | 0.00 | 0.00 | 50 | 1013.4 |
| 20260906030322 | 31 | 166 | 4.8 | 6.4 | 0.00 | 0.00 | 0.00 | 49 | 1013.5 |
| 20260906025817 | 31 | 145 | 6.4 | 9.7 | 0.00 | 0.00 | 0.00 | 49 | 1013.7 |
| 20260906025311 | 31 | 151 | 4.8 | 11.3 | 0.00 | 0.00 | 0.00 | 49 | 1013.3 |
| 20260906024810 | 31 | 151 | 8.0 | 9.7 | 0.00 | 0.00 | 0.00 | 48 | 1013.4 |
| 20260906024309 | 31 | 150 | 4.8 | 6.4 | 0.00 | 0.00 | 0.00 | 48 | 1013.4 |
| 20260906023805 | 31 | 156 | 3.2 | 4.8 | 0.00 | 0.00 | 0.00 | 47 | 1013.2 |
| 20260906023300 | 31 | 160 | 1.6 | 9.7 | 0.00 | 0.00 | 0.00 | 46 | 1013.2 |
| 20260906022755 | 31 | 152 | 3.2 | 6.4 | 0.00 | 0.00 | 0.00 | 46 | 1013.2 |
| 20260906022251 | 31 | 153 | 3.2 | 4.8 | 0.00 | 0.00 | 0.00 | 45 | 1013.0 |
| 20260906021747 | 31 | 155 | 3.2 | 3.2 | 0.00 | 0.00 | 0.00 | 45 | 1013.2 |
| 20260906021246 | 31 | 155 | 4.8 | 6.4 | 0.00 | 0.00 | 0.00 | 45 | 1013.0 |
| 20260906020741 | 30 | 144 | 3.2 | 9.7 | 0.00 | 0.00 | 0.00 | 46 | 1012.8 |
| 20260906020240 | 30 | 137 | 0.0 | 0.0 | 0.00 | 0.00 | 0.00 | 45 | 1012.6 |
| 20260906015735 | 30 | 137 | 0.0 | 0.0 | 0.00 | 0.00 | 0.00 | 45 | 1012.7 |
| 20260906015233 | 30 | 137 | 0.0 | 0.0 | 0.00 | 0.00 | 0.00 | 45 | 1012.3 |
| 20260906014728 | 31 | 137 | 0.0 | 1.6 | 0.00 | 0.00 | 0.00 | 45 | 1012.3 |
| 20260906014224 | 31 | 137 | 1.6 | 1.6 | 0.00 | 0.00 | 0.00 | 44 | 1012.2 |
| 20260906013720 | 31 | 137 | 3.2 | 3.2 | 0.00 | 0.00 | 0.00 | 45 | 1012.5 |
| 20260906013220 | 31 | 137 | 1.6 | 1.6 | 0.00 | 0.00 | 0.00 | 44 | 1012.5 |
| 20260906012715 | 31 | 137 | 1.6 | 1.6 | 0.00 | 0.00 | 0.00 | 43 | 1012.1 |
| 20260906012215 | 31 | 137 | 0.0 | 1.6 | 0.00 | 0.00 | 0.00 | 43 | 1011.9 |
| 20260906011711 | 32 | 137 | 1.6 | 3.2 | 0.00 | 0.00 | 0.00 | 42 | 1012.1 |
| 20260906011205 | 32 | 138 | 1.6 | 3.2 | 0.00 | 0.00 | 0.00 | 41 | 1012.1 |
| 20260906010701 | 32 | 140 | 3.2 | 4.8 | 0.00 | 0.00 | 0.00 | 41 | 1011.9 |
| 20260906010157 | 32 | 142 | 3.2 | 3.2 | 0.00 | 0.00 | 0.00 | 40 | 1012.0 |
| 20260906005657 | 32 | 137 | 3.2 | 4.8 | 0.00 | 0.00 | 0.00 | 39 | 1011.7 |
| 20260906005156 | 33 | 142 | 4.8 | 6.4 | 0.00 | 0.00 | 0.00 | 39 | 1012.1 |
| 20260906004655 | 33 | 141 | 3.2 | 11.3 | 0.00 | 0.00 | 0.00 | 38 | 1012.1 |
| 20260906004150 | 33 | 140 | 4.8 | 6.4 | 0.00 | 0.00 | 0.00 | 38 | 1012.1 |
| 20260906003646 | 33 | 153 | 4.8 | 9.7 | 0.00 | 0.00 | 0.00 | 37 | 1011.9 |
| 20260906003141 | 33 | 148 | 4.8 | 11.3 | 0.00 | 0.00 | 0.00 | 37 | 1011.9 |
| 20260906002636 | 34 | 162 | 4.8 | 9.7 | 0.00 | 0.00 | 0.00 | 37 | 1011.9 |
| 20260906002131 | 34 | 148 | 4.8 | 11.3 | 0.00 | 0.00 | 0.00 | 36 | 1011.7 |
| 20260906001626 | 34 | 146 | 6.4 | 9.7 | 0.00 | 0.00 | 0.00 | 36 | 1012.0 |
| 20260906001126 | 35 | 150 | 4.8 | 12.9 | 0.00 | 0.00 | 0.00 | 36 | 1011.8 |
| 20260906000622 | 35 | 135 | 3.2 | 6.4 | 0.00 | 0.00 | 0.00 | 36 | 1011.8 |
| 20260906000117 | 35 | 148 | 3.2 | 9.7 | 0.00 | 0.00 | 0.00 | 35 | 1011.6 |
| 20260905235616 | 35 | 158 | 8.0 | 11.3 | 0.00 | 0.00 | 0.00 | 35 | 1011.7 |
| 20260905235111 | 35 | 165 | 4.8 | 9.7 | 0.00 | 0.00 | 0.00 | 35 | 1011.5 |
| 20260905234612 | 35 | 145 | 3.2 | 12.9 | 0.00 | 0.00 | 0.00 | 34 | 1011.7 |
| 20260905234108 | 35 | 156 | 6.4 | 6.4 | 0.00 | 0.00 | 0.00 | 33 | 1011.7 |
| 20260905233608 | 35 | 147 | 3.2 | 11.3 | 0.00 | 0.00 | 0.00 | 34 | 1011.7 |
| 20260905233102 | 35 | 96 | 3.2 | 6.4 | 0.00 | 0.00 | 0.00 | 33 | 1011.5 |
| 20260905232557 | 35 | 136 | 1.6 | 4.8 | 0.00 | 0.00 | 0.00 | 34 | 1011.5 |
| 20260905232053 | 35 | 128 | 6.4 | 6.4 | 0.00 | 0.00 | 0.00 | 33 | 1011.6 |
| 20260905231548 | 36 | 162 | 8.0 | 11.3 | 0.00 | 0.00 | 0.00 | 32 | 1011.5 |
| 20260905231044 | 36 | 150 | 4.8 | 12.9 | 0.00 | 0.00 | 0.00 | 32 | 1011.7 |
| 20260905230544 | 36 | 145 | 1.6 | 4.8 | 0.00 | 0.00 | 0.00 | 32 | 1011.3 |
| 20260905230043 | 36 | 60 | 3.2 | 4.8 | 0.00 | 0.00 | 0.00 | 32 | 1011.2 |
| 20260905225537 | 36 | 118 | 3.2 | 11.3 | 0.00 | 0.00 | 0.00 | 33 | 1011.7 |
| 20260905225033 | 36 | 79 | 3.2 | 11.3 | 0.00 | 0.00 | 0.00 | 32 | 1011.5 |
| 20260905224532 | 36 | 123 | 1.6 | 6.4 | 0.00 | 0.00 | 0.00 | 32 | 1011.5 |
| 20260905224032 | 36 | 136 | 3.2 | 4.8 | 0.00 | 0.00 | 0.00 | 32 | 1011.4 |
| 20260905223529 | 36 | 136 | 6.4 | 11.3 | 0.00 | 0.00 | 0.00 | 32 | 1011.6 |
| 20260905223025 | 36 | 160 | 6.4 | 12.9 | 0.00 | 0.00 | 0.00 | 32 | 1011.6 |
| 20260905222525 | 36 | 192 | 9.7 | 11.3 | 0.00 | 0.00 | 0.00 | 32 | 1011.6 |
| 20260905222020 | 36 | 141 | 1.6 | 12.9 | 0.00 | 0.00 | 0.00 | 32 | 1011.6 |